Location: Oberkirch
(48.5323°N, 8.0787°E)
Time: 01:25:32
(UTC+00:00)

Cosmos 2233 Rocket - Pass Details

Date: 08 November 2025
Orbit: 952 x 989 km, 82.9° (Epoch: 13 December)

Event Time Altitude Azimuth Distance (km) Brightness Sun altitude
Rises 05:06:20 0° 348° (NNW) 3,715 6.8 -13.2°
Reaches altitude 10° 05:08:53 10° 345° (NNW) 2,760 6.1 -12.8°
Maximum altitude 05:15:07 62° 267° (W) 1,101 4.0 -11.8°
Drops below altitude 10° 05:21:16 10° 188° (S) 2,724 6.4 -10.8°
Sets 05:23:47 0° 185° (S) 3,662 7.1 -10.4°
